Location: Hungerford
(51.4167°N, 1.5167°W)
Time: 06:51:19
(UTC+00:00)

COSMOS 2406 - Pass Details

Date: 18 September 2020
Orbit: 844 x 862 km, 71.0° (Epoch: 19 October)

Event Time Altitude Azimuth Distance (km) Brightness Sun altitude
Rises 20:45:24 0° 330° (NNW) 3,416 7.5 -23.1°
Reaches altitude 10° 20:47:53 10° 333° (NNW) 2,477 6.5 -23.4°
Maximum altitude 20:53:33 69° 57° (ENE) 906 3.2 -24.1°
Enters shadow 20:54:23 60° 105° (ESE) 968 3.1 -24.2°
